EW5900 Weather Reports


time (UTC)temp
C
wind
direction
speed
KPH
gust
KPH
rain 1hr
cm
rain 24hr
cm
rain mn
cm
humidity
%
barometer
mb
20260903021518 27 10 8.0 14.5 0.00 0.58 0.58 90 1015.2
20260903020040 27 10 8.0 12.9 0.00 0.58 0.58 90 1015.4
20260903014513 27 11 11.3 16.1 0.00 0.58 0.58 91 1015.2
20260903013012 27 11 8.0 14.5 0.00 0.58 0.58 90 1015.1
20260903011511 27 11 8.0 16.1 0.00 0.58 0.58 90 1015.2
20260903010011 27 11 9.7 19.3 0.00 0.58 0.58 90 1015.1
20260903004509 27 10 8.0 16.1 0.00 0.58 0.58 90 1014.9
20260903003009 27 10 9.7 17.7 0.51 0.58 0.58 91 1014.9
20260903001508 27 9 8.0 14.5 0.51 0.58 0.58 91 1014.8
20260903000008 27 10 8.0 14.5 0.51 0.58 0.58 92 1014.7
20260902234506 27 10 4.8 43.5 0.51 0.58 0.58 89 1014.7
20260902233009 28 11 9.7 17.7 0.00 0.08 0.08 86 1014.5
20260902231507 28 10 8.0 16.1 0.00 0.08 0.08 86 1014.5
20260902230004 28 14 16.1 22.5 0.00 0.08 0.08 85 1014.2
20260902224503 28 13 14.5 25.7 0.00 0.08 0.08 85 1014.1
20260902223002 28 12 17.7 22.5 0.00 0.08 0.08 84 1014.2
20260902221501 28 17 17.7 22.5 0.00 0.08 0.08 84 1014.1
20260902220107 28 11 16.1 25.7 0.00 0.08 0.08 84 1014.2
20260902220006 28 12 16.1 25.7 0.00 0.08 0.08 84 1014.1
20260902214558 28 13 20.9 29.0 0.00 0.08 0.08 83 1014.3
20260902213059 28 10 12.9 20.9 0.00 0.08 0.08 83 1014.4
20260902211600 28 11 16.1 29.0 0.00 0.08 0.08 83 1014.4
20260902210057 29 12 20.9 27.4 0.00 0.08 0.08 82 1014.4
20260902204612 29 66 17.7 27.4 0.00 0.08 0.08 81 1014.4
20260902203057 29 19 17.7 24.1 0.00 0.08 0.08 81 1014.5
20260902201555 29 13 17.7 27.4 0.00 0.08 0.08 81 1014.4
20260902200053 30 59 20.9 29.0 0.00 0.08 0.08 78 1014.5
20260902194557 30 84 19.3 27.4 0.00 0.08 0.08 77 1014.6
20260902193052 30 76 16.1 22.5 0.00 0.08 0.08 75 1014.7
20260902191559 30 96 14.5 24.1 0.00 0.08 0.08 78 1014.5
20260902190048 30 83 14.5 27.4 0.00 0.08 0.08 80 1014.5
20260902184547 30 84 17.7 27.4 0.00 0.08 0.08 79 1014.8
20260902183107 30 112 17.7 27.4 0.00 0.08 0.08 80 1014.9
20260902181545 30 103 14.5 27.4 0.00 0.08 0.08 80 1015.3
20260902180044 30 80 19.3 27.4 0.00 0.08 0.08 77 1015.5
20260902174544 30 88 17.7 29.0 0.00 0.08 0.08 76 1015.6
20260902173053 30 80 19.3 29.0 0.00 0.08 0.08 77 1015.6
20260902171544 30 360 17.7 27.4 0.00 0.08 0.08 77 1015.9
20260902170045 30 97 16.1 20.9 0.00 0.08 0.08 77 1015.9
20260902164552 30 55 14.5 22.5 0.00 0.08 0.08 77 1015.8
20260902163037 30 360 9.7 22.5 0.00 0.08 0.08 77 1015.8
20260902161535 30 69 12.9 20.9 0.00 0.08 0.08 78 1015.8
20260902160038 30 90 12.9 24.1 0.00 0.08 0.08 78 1016.2
20260902154545 30 57 14.5 22.5 0.00 0.08 0.08 78 1016.5
20260902153026 29 69 12.9 24.1 0.05 0.08 0.08 80 1016.5
20260902151531 28 61 16.1 24.1 0.08 0.08 0.08 83 1016.5
20260902150020 28 71 12.9 22.5 0.08 0.08 0.08 87 1016.6
20260902144518 27 10 11.3 22.5 0.08 0.08 0.08 89 1016.7
20260902143017 28 11 17.7 25.7 0.03 0.03 0.03 83 1016.9
20260902141515 28 36 16.1 25.7 0.00 0.00 0.00 80 1016.8
20260902140016 30 40 16.1 24.1 0.00 0.00 0.00 78 1016.6
20260902134510 29 59 11.3 17.7 0.00 0.00 0.00 81 1016.3
20260902133012 28 37 6.4 14.5 0.00 0.00 0.00 81 1016.3
20260902131503 27 17 14.5 19.3 0.00 0.00 0.00 83 1016.5
20260902130004 27 13 14.5 22.5 0.00 0.00 0.00 85 1016.6
20260902124557 27 48 11.3 16.1 0.00 0.00 0.00 85 1016.2
20260902123054 27 17 8.0 16.1 0.00 0.00 0.00 87 1016.2
20260902121553 27 14 9.7 14.5 0.00 0.00 0.00 88 1016.2
20260902120049 26 9 4.8 9.7 0.00 0.00 0.00 89 1016.2
20260902114607 26 9 6.4 14.5 0.00 0.00 0.00 89 1016.1
20260902113043 26 17 6.4 14.5 0.00 0.00 0.00 90 1015.9
20260902111545 26 9 9.7 16.1 0.00 0.00 0.00 90 1015.8
20260902110052 26 9 8.0 12.9 0.00 0.00 0.00 92 1015.8
20260902104543 26 17 4.8 8.0 0.00 0.00 0.00 92 1015.8
20260902103047 26 5 3.2 6.4 0.00 0.00 0.00 92 1015.5
20260902101547 26 17 6.4 8.0 0.00 0.00 0.00 91 1015.4
20260902100038 26 360 4.8 8.0 0.00 0.00 0.00 91 1015.4
20260902094537 26 9 3.2 9.7 0.00 0.00 0.00 92 1015.4
20260902093040 26 9 4.8 9.7 0.00 0.00 0.00 92 1015.2
20260902091536 26 17 3.2 8.0 0.00 0.00 0.00 91 1014.9
20260902090035 26 17 4.8 12.9 0.00 0.00 0.00 91 1014.8
20260902084533 26 17 6.4 11.3 0.00 0.00 0.00 91 1014.6
20260902083037 26 9 1.6 6.4 0.00 0.00 0.00 91 1014.8
20260902081541 27 17 3.2 8.0 0.00 0.00 0.00 90 1014.9
20260902080044 27 360 3.2 9.7 0.00 0.00 0.00 90 1014.9
20260902074529 27 10 4.8 12.9 0.00 0.00 0.00 90 1015.0
20260902073032 27 9 4.8 8.0 0.00 0.00 0.00 90 1015.0
20260902071532 27 5 6.4 8.0 0.00 0.00 0.00 90 1015.0
20260902070026 27 17 4.8 11.3 0.00 0.00 0.00 90 1015.1
20260902064525 27 9 4.8 8.0 0.00 0.00 0.00 90 1015.2
20260902063024 27 360 6.4 9.7 0.00 0.00 0.00 90 1015.2
20260902061523 27 9 4.8 8.0 0.00 0.00 0.00 89 1015.5
20260902060022 27 360 4.8 9.7 0.00 0.00 0.00 89 1015.4
20260902054529 27 5 8.0 12.9 0.00 0.00 0.00 89 1015.5
20260902053020 27 5 6.4 9.7 0.00 0.00 0.00 90 1015.5
20260902051523 27 9 6.4 12.9 0.00 0.00 0.00 90 1015.4
20260902050018 27 9 6.4 14.5 0.00 0.00 0.00 90 1015.5
20260902044516 27 5 4.8 9.7 0.00 0.00 0.00 90 1015.6
20260902043015 27 17 4.8 9.7 0.00 0.00 0.00 90 1015.7
20260902041513 27 5 8.0 14.5 0.00 0.00 0.00 90 1015.8
20260902040012 27 9 4.8 14.5 0.00 0.00 0.00 89 1016.0
20260902034510 27 11 8.0 14.5 0.00 0.00 0.00 89 1016.1
20260902033009 27 11 8.0 16.1 0.00 0.00 0.00 89 1016.2
20260902031508 27 11 8.0 16.1 0.00 0.00 0.00 89 1016.4
20260902030008 27 11 9.7 16.1 0.00 0.00 0.00 89 1016.4
20260902024507 27 9 11.3 17.7 0.00 0.00 0.00 88 1016.7
20260902023017 27 9 6.4 17.7 0.00 0.00 0.00 88 1016.8